KB4ID Weather Reports


Display with metric or nautical units.
time (UTC)temp
F
wind
direction
speed
MPH
gust
MPH
rain 1hr
in
rain 24hr
in
rain mn
in
humidity
%
barometer
mb
20220519115405 68 360 0.0 0.0 0.00 0.00 0.00 90 1008.8
20220519113405 67 5 0.0 0.0 0.00 0.00 0.00 90 1008.8
20220519111405 66 5 0.0 0.0 0.00 0.00 0.00 90 1008.8
20220519104405 66 360 0.0 0.0 0.00 0.00 0.00 88 1008.4
20220519103404 66 5 0.0 0.0 0.00 0.00 0.00 88 1008.4
20220519102405 67 360 0.0 0.0 0.00 0.00 0.00 87 1008.4
20220519101405 67 360 0.0 0.0 0.00 0.00 0.00 87 1008.1
20220519100405 67 360 0.0 0.0 0.00 0.00 0.00 86 1008.1
20220519095405 67 360 0.0 0.0 0.00 0.00 0.00 85 1008.4
20220519094405 67 360 0.0 0.0 0.00 0.00 0.00 85 1008.1
20220519092405 67 360 0.0 0.0 0.00 0.00 0.00 84 1007.7
20220519090405 68 360 0.0 0.0 0.00 0.00 0.00 84 1007.7
20220519084405 68 360 0.0 0.0 0.00 0.00 0.00 83 1008.1
20220519082406 68 360 0.0 0.0 0.00 0.00 0.00 83 1008.1
20220519075408 69 360 0.0 0.0 0.00 0.00 0.00 80 1008.1
20220519071408 70 19 0.0 0.0 0.00 0.00 0.00 78 1008.1
20220519070407 70 5 0.0 0.0 0.00 0.00 0.00 77 1008.4
20220519063410 70 13 0.0 0.0 0.00 0.00 0.00 75 1008.1
20220519062408 71 34 0.0 0.0 0.00 0.00 0.00 76 1008.4
20220519061410 71 65 0.0 0.0 0.00 0.00 0.00 75 1008.4
20220519060406 71 98 0.0 0.0 0.00 0.00 0.00 75 1008.4
20220519055409 71 182 0.0 0.0 0.00 0.00 0.00 75 1008.8
20220519054406 70 44 0.0 0.0 0.00 0.00 0.00 74 1008.8
20220519053406 71 36 0.0 0.0 0.00 0.00 0.00 75 1008.8
20220519051406 70 19 0.0 0.0 0.00 0.00 0.00 73 1009.1
20220519050406 70 125 0.0 0.0 0.00 0.00 0.00 73 1009.1
20220519045405 70 27 0.0 0.0 0.00 0.00 0.00 74 1009.1
20220519041406 68 265 0.0 0.0 0.00 0.00 0.00 81 1009.8
20220519040407 68 265 0.0 0.0 0.00 0.00 0.00 82 1009.8
20220519034406 68 265 0.0 0.0 0.00 0.00 0.00 84 1010.1
20220519033406 67 265 0.0 0.0 0.00 0.00 0.00 81 1010.1
20220519032406 67 265 0.0 0.0 0.00 0.00 0.00 84 1010.1
20220519031406 67 265 0.0 0.0 0.00 0.00 0.00 83 1010.1
20220519030405 67 265 0.0 0.0 0.00 0.00 0.00 83 1010.1
20220519025406 67 265 0.0 0.0 0.00 0.00 0.00 83 1010.1
20220519023406 68 265 0.0 0.0 0.00 0.00 0.00 83 1010.4
20220519020406 68 265 0.0 0.0 0.00 0.00 0.00 82 1010.4
20220519015406 68 265 0.0 0.0 0.00 0.00 0.00 80 1010.4
20220519014406 68 265 0.0 0.0 0.00 0.00 0.00 79 1010.1
20220519011406 69 265 0.0 0.0 0.00 0.00 0.00 81 1010.4
20220519005405 70 265 0.0 0.0 0.00 0.00 0.00 79 1010.4
20220519004406 71 265 0.0 0.0 0.00 0.00 0.00 78 1010.1
20220519003406 71 265 0.0 0.0 0.00 0.00 0.00 76 1010.4
20220519002406 72 265 0.0 0.0 0.00 0.00 0.00 74 1010.8
20220519001406 73 265 0.0 0.0 0.00 0.00 0.00 73 1010.8
20220519000405 73 265 0.0 0.0 0.00 0.00 0.00 73 1010.8
20220518235406 74 265 0.0 0.0 0.00 0.00 0.00 74 1010.4
20220518234405 74 265 0.0 0.0 0.00 0.00 0.00 76 1010.4
20220518233406 74 265 0.0 0.0 0.00 0.00 0.00 74 1010.1
20220518232406 75 265 0.0 0.0 0.00 0.00 0.00 73 1010.4
20220518231406 76 265 0.0 0.0 0.00 0.00 0.00 71 1010.4
20220518230406 76 265 0.0 0.0 0.00 0.00 0.00 69 1010.8
20220518224406 77 265 0.0 0.0 0.00 0.00 0.00 66 1011.1
20220518223405 78 265 0.0 0.0 0.00 0.00 0.00 64 1011.1
20220518222406 78 265 0.0 0.0 0.00 0.00 0.00 64 1011.1
20220518221406 79 265 0.0 0.0 0.00 0.00 0.00 60 1011.8
20220518220406 79 265 0.0 0.0 0.00 0.00 0.00 62 1011.5
20220518214406 79 344 0.0 0.0 0.00 0.00 0.00 60 1011.5
20220518213406 80 35 0.0 0.0 0.00 0.00 0.00 59 1012.1
20220518212405 81 35 0.0 0.0 0.00 0.00 0.00 56 1012.5
20220518211406 81 34 0.0 0.0 0.00 0.00 0.00 53 1012.5
20220518210407 81 26 0.0 0.0 0.00 0.00 0.00 53 1012.5
20220518205406 81 30 0.0 0.0 0.00 0.00 0.00 54 1012.5
20220518204405 82 30 0.0 0.0 0.00 0.00 0.00 55 1012.5
20220518203406 82 355 0.0 0.0 0.00 0.00 0.00 58 1012.8
20220518201406 83 355 0.0 0.0 0.00 0.00 0.00 55 1012.8
20220518195406 84 22 0.0 1.0 0.00 0.00 0.00 50 1013.2
20220518194406 84 78 0.0 0.0 0.00 0.00 0.00 53 1013.5
20220518193406 84 13 0.0 0.0 0.00 0.00 0.00 52 1013.8
20220518192405 84 24 0.0 0.0 0.00 0.00 0.00 51 1013.8
20220518182406 83 57 0.0 0.0 0.00 0.00 0.00 49 1014.5
20220518175405 83 25 0.0 0.0 0.00 0.00 0.00 50 1015.2
20220518165406 80 330 0.0 0.0 0.00 0.00 0.00 54 1015.5
20220518162405 78 325 0.0 0.0 0.00 0.00 0.00 55 1016.2
20220518161405 78 319 0.0 0.0 0.00 0.00 0.00 60 1016.2
20220518160406 77 318 0.0 0.0 0.00 0.00 0.00 60 1016.5
20220518153405 76 250 0.0 0.0 0.00 0.00 0.00 62 1016.9
20220518152406 75 249 0.0 0.0 0.00 0.00 0.00 57 1016.9
20220518150405 74 266 0.0 0.0 0.00 0.00 0.00 59 1016.9
20220518144405 73 265 0.0 0.0 0.00 0.00 0.00 66 1017.2
20220518143406 71 244 0.0 0.0 0.00 0.00 0.00 68 1017.2
20220518142405 70 244 0.0 0.0 0.00 0.00 0.00 65 1017.6
20220518140405 67 280 0.0 0.0 0.00 0.00 0.00 74 1017.9
20220518135405 66 280 0.0 0.0 0.00 0.00 0.00 80 1017.9
20220518133405 63 348 0.0 0.0 0.00 0.00 0.00 91 1017.9
20220518132406 62 28 0.0 0.0 0.00 0.00 0.00 95 1017.6
20220518130405 61 67 0.0 0.0 0.00 0.00 0.00 99 1017.6
20220518125405 60 67 0.0 0.0 0.00 0.00 0.00 100 1017.2
20220518124404 59 67 0.0 0.0 0.00 0.00 0.00 100 1017.2
20220518123405 58 67 0.0 0.0 0.00 0.00 0.00 100 1017.2
20220518122405 57 67 0.0 0.0 0.00 0.00 0.00 100 1017.2
20220518121409 57 67 0.0 0.0 0.00 0.00 0.00 99 1016.9